Location: Unspecified
(0.0000°N, 0.0000°E)
Time: 13:11:26
(UTC+02:00)

Cosmos 1933 - Visible Passes

Search period start: 25 October 2014 00:00
Search period end: 03 November 2014 23:00
Orbit: 556 x 571 km, 82.5° (Epoch: 25 October)

Date Brightness Start Highest point End Pass type
(mag) Time Alt. Az. Time Alt. Az. Time Alt. Az.
25 Oct 3.2 20:35:28 10° S 20:39:30 85° E 20:43:33 10° N visible
26 Oct 3.6 19:35:27 10° S 19:39:29 72° W 19:43:30 10° N visible
27 Oct 4.2 19:35:30 10° SSW 19:39:27 53° W 19:43:23 10° N visible
28 Oct 4.8 19:35:37 10° SSW 19:39:24 39° W 19:43:12 10° NNW visible
29 Oct 5.4 19:35:48 10° SSW 19:39:21 30° W 19:42:55 10° NNW visible
30 Oct 6.0 19:36:04 10° SW 19:39:18 23° W 19:42:32 10° NNW visible
31 Oct 6.7 06:01:07 10° ENE 06:02:51 12° E 06:04:34 10° ESE visible
31 Oct 6.4 19:36:28 10° SW 19:39:14 18° W 19:42:00 10° NW visible
01 Nov 6.5 06:00:12 10° NE 06:02:47 16° E 06:05:21 10° SE visible
01 Nov 6.6 19:37:05 10° WSW 19:39:10 14° W 19:41:14 10° NW visible
02 Nov 6.3 05:59:36 10° NE 06:02:42 21° E 06:05:48 10° SE visible
02 Nov 7.0 19:38:26 10° W 19:39:05 10° W 19:39:43 10° WNW visible
03 Nov 5.8 05:59:08 10° NNE 06:02:37 27° E 06:06:06 10° SE visible
